This demonstration page uses our WeatherBlox Daily Observations layout. Learn more.

Left ArrowRight Arrow

Hourly Observations for April 14, 2017

Temp ( °F °C ) Dew Point ( °F °C ) Humidity (%) Winds ( mph kmh ) Pressure ( in mb ) Visibility ( mi km ) Precip ( " mm )
12:59 am 00:59 Clear 47 8.3 40 4.4 77 77 SE 3 6 30.35 1028 10 16 0.00 0.00
1:59 am 01:59 Clear 46 7.8 40 4.4 79 79 Calm 30.35 1028 10 16 0.00 0.00
2:59 am 02:59 Clear 46 7.8 40 4.4 79 79 Calm 30.36 1028 10 16 0.00 0.00
3:59 am 03:59 Clear 46 7.8 41 5 83 83 Calm 30.35 1028 10 16 0.00 0.00
4:59 am 04:59 Clear 44 6.7 42 5.6 93 93 Calm 30.35 1028 10 16 0.00 0.00
5:59 am 05:59 Partly Cloudy 45 7.2 41 5 86 86 Calm 30.35 1028 10 16 0.00 0.00
6:59 am 06:59 Partly Cloudy 47 8.3 44 6.7 90 90 Calm 30.36 1028 8 13 0.00 0.00
7:59 am 07:59 Partly Cloudy 55 12.8 48 8.9 77 77 ENE 5 7 30.36 1028 9 14 0.00 0.00
8:59 am 08:59 Partly Cloudy 58 14.4 46 7.8 65 65 ENE 6 9 30.37 1028 10 16 0.00 0.00
9:59 am 09:59 Partly Cloudy 61 16.1 47 8.3 60 60 NE 8 13 30.38 1029 10 16 0.00 0.00
10:59 am 10:59 Mostly Cloudy 62 16.7 46 7.8 56 56 NE 8 13 30.39 1029 10 16 0.00 0.00
11:59 am 11:59 Mostly Cloudy 63 17.2 46 7.8 54 54 E 9 15 30.38 1029 10 16 0.00 0.00
12:59 pm 12:59 Partly Cloudy 64 17.8 47 8.3 54 54 ENE 14 22 30.37 1029 10 16 0.00 0.00
1:59 pm 13:59 Partly Cloudy 64 17.8 46 7.8 52 52 ENE 13 20 30.35 1028 10 16 0.00 0.00
2:59 pm 14:59 Mostly Cloudy 62 16.7 46 7.8 56 56 ENE 15 24 30.35 1028 10 16 0.00 0.00
3:59 pm 15:59 Mostly Cloudy 61 16.1 43 6.1 52 52 E 14 22 30.33 1027 10 16 0.00 0.00
4:59 pm 16:59 Mostly Sunny 63 17.2 45 7.2 52 52 E 10 17 30.32 1027 10 16 0.00 0.00
5:59 pm 17:59 Mostly Sunny 62 16.7 37 2.8 40 40 E 13 20 30.33 1027 10 16 0.00 0.00
6:59 pm 18:59 Mostly Cloudy 60 15.6 41 5 50 50 E 9 15 30.33 1027 10 16 0.00 0.00
7:59 pm 19:59 Mostly Cloudy 56 13.3 41 5 57 57 ESE 8 13 30.34 1027 10 16 0.00 0.00
8:59 pm 20:59 Mostly Cloudy 57 13.9 46 7.8 67 67 E 8 13 30.36 1028 10 16 0.00 0.00
9:59 pm 21:59 Mostly Cloudy 56 13.3 44 6.7 65 65 E 7 11 30.36 1028 10 16 0.00 0.00
10:59 pm 22:59 Mostly Cloudy 57 13.9 44 6.7 62 62 E 7 11 30.36 1028 10 16 0.00 0.00
11:59 pm 23:59 Mostly Cloudy 57 13.9 43 6.1 60 60 E 5 7 30.38 1029 10 16 0.00 0.00

Powered by AerisWeather